Torna al catalogo

MAANSHAN ZHISHUAN 1

AttivoScienzaSSO
NORAD 63988·PAYLOAD·🇨🇳 China
Questo nome del satellite non è ancora stato confermato da fonti ufficiali.

Lanciato May 14, 2025 da Jiuquan Satellite Launch Center

Loading…

Prossimi Passaggi (prossime 24 ore)

TLE

AggiornatoSource: Space-Track

Epoca: Sep 14, 2026, 15:11 UTC

1 63988U 25100G   26257.63309377  .00003895  00000-0  14773-3 0  9992
2 63988  97.3630 331.4886 0012154 356.7072   3.4085 15.27392862 74411

Traccia MAANSHAN ZHISHUAN 1 in tempo reale con AllMySat

Download on the App Store